DELTA 1 DEB, 12539

Orbit data source: Space-Track

DELTA 1 DEB, 12539 is space debris in SSO originally from a launch on Thu, 29 Jul 1976 UTC launched from the Air Force Western Test Range (AFWTR). Debris objects in space refer to the collection of defunct objects orbiting the Earth. Examples of debris include non-operational satellites, rocket bodies, and fragments generated from explosions, collisions, or faulty payload assembly.

Loading next visibility...
Identifier
12539, 1976-077DU
Orbit
SSO
Country
Flag of USUS
Related business
Manufacturer
Unknown
Mission
Spacecraft
Bus & Motor
Unknown
Mass
Unknown
Launch date (UTC)
1976-07-29 (50 years ago)
Launch vehicle
Unknown
Launch site
Air Force Western Test Range (AFWTR)
Object type
Payload
Rocket body
Debris
Shape & HBR
Unknown shape, 0.1 m
Radar Cross Section
Medium (>0.1 m² and <1 m²)

Expand to show TLE details & history
Last TLE update: 18 hours ago

TLE from 18 hours ago
0 DELTA 1 DEB
1 12539U 76077DU  26255.70477543  .00000165  00000-0  72989-3 0  9994
2 12539 101.7025 175.2701 0340796 113.6755 280.0485 12.79714223140682
Epoch: 2026-09-12T16:54Z
TLE epoch observation values (Epoch: 2026-09-12T16:54:52.597Z)
Latitude
29.21895°
Longitude
-76.77846°
Altitude
1,308.845 km
Speed
7.222 km/s
True Right ascension
11h 14m 36s
True Declination
29° 04' 59"
Sunlit
Object was in daylight at epoch
Visualization orbit readout
Latitude
Unknown
Longitude
Unknown
Altitude
Unknown
Speed
Unknown
Apparent Right ascension
Unknown
Apparent Declination
Unknown
Sunlit
N/A
Visualization observer readout
Local Sidereal Time
03:06:54
Azimuth
Unknown
Elevation
Unknown
Doppler factor
Unknown
Orbital elements
Apogee altitude
1,603.155 km
Perigee altitude
1,077.085 km
Semi-major axis
7,718.257 km
Eccentricity
0.03408
Inclination
101.7025°
RAAN
175.2701°
Arg. of periapsis
113.6755°
True anomaly
276.17733°
Mean anomaly
280.0485°
Eccentric anomaly
278.11544°
Mean motion
3.20084 °/min
Orbital period
112.47 mins
BSTAR
0.00072989
Loading maneuver chart data...
Computing Atmospheric mass density...
Loading historical data...
Loading historical data...
Loading historical data...
Loading historical data...
Loading historical data...
Loading historical data...
Loading historical data...

Documentation

Showing up to 5 results
|